Location: Tr�vern
(48.0333°N, 4.6000°W)
Time: 08:43:07
(UTC+00:00)

Meteor 1-14 Rocket - Pass Details

Date: 14 July 2020
Orbit: 834 x 918 km, 81.3° (Epoch: 04 August)

Event Time Altitude Azimuth Distance (km) Brightness Sun altitude
Exits shadow 02:04:56 27° 206° (SSW) 1,553 5.0 -16.8°
Maximum altitude 02:08:00 69° 283° (WNW) 911 4.3 -16.6°
Drops below altitude 10° 02:13:40 10° 7° (N) 2,512 7.8 -16.2°
Sets 02:16:09 0° 10° (N) 3,466 8.9 -16.0°
